This is the latest recevied weather packets stored in our database for station/object N3FAA. If no packets are shown the sender has not sent any weather packets the latest 10 day(s).
| Time | Temp. | Humidity | Pressure | Rain* | Wind** | Luminosity | Snow |
|---|---|---|---|---|---|---|---|
| 1777435564 | 15° C | 58% | 1014.4 hPa | 0 mm | - | 0 W/m² | - |
| 1777435260 | 15° C | 58% | 1014.1 hPa | 0 mm | - | 0 W/m² | - |
| 1777434959 | 15° C | 57% | 1013.9 hPa | 0 mm | - | 0 W/m² | - |
| 1777434655 | 15° C | 57% | 1013.9 hPa | 0 mm | - | 0 W/m² | - |
| 1777434350 | 15° C | 57% | 1014 hPa | 0 mm | - | 0 W/m² | - |
| 1777434048 | 15° C | 57% | 1013.8 hPa | 0 mm | - | 0 W/m² | - |
| 1777433744 | 15° C | 57% | 1013.8 hPa | 0 mm | - | 0 W/m² | - |
| 1777433441 | 15° C | 57% | 1013.8 hPa | 0 mm | - | 0 W/m² | - |
| 1777433135 | 15° C | 56% | 1013.8 hPa | 0 mm | - | 0 W/m² | - |
| 1777432833 | 15.56° C | 56% | 1013.6 hPa | 0 mm | - | 0 W/m² | - |
| 1777432528 | 15.56° C | 56% | 1013.7 hPa | 0 mm | - | 0 W/m² | - |
| 1777432224 | 15.56° C | 56% | 1013.4 hPa | 0 mm | - | 0 W/m² | - |
| 1777431923 | 15.56° C | 55% | 1013.6 hPa | 0 mm | - | 0 W/m² | - |
| 1777431621 | 16.11° C | 54% | 1013.5 hPa | 0 mm | - | 0 W/m² | - |
| 1777431316 | 16.11° C | 53% | 1013.4 hPa | 0 mm | - | 0 W/m² | - |
| 1777431012 | 16.11° C | 52% | 1013.5 hPa | 0 mm | - | 0 W/m² | - |
| 1777430708 | 16.67° C | 51% | 1013.3 hPa | 0 mm | - | 0 W/m² | - |
| 1777430403 | 16.67° C | 50% | 1013.2 hPa | 0 mm | - | 1 W/m² | - |
| 1777430099 | 16.67° C | 50% | 1013.2 hPa | 0 mm | - | 3 W/m² | - |
| 1777429795 | 17.22° C | 49% | 1013.2 hPa | 0 mm | - | 6 W/m² | - |
| 1777429491 | 17.22° C | 48% | 1013.2 hPa | 0 mm | - | 9 W/m² | - |
| 1777429187 | 17.78° C | 47% | 1013 hPa | 0 mm | - | 13 W/m² | - |
| 1777428884 | 17.78° C | 46% | 1013 hPa | 0 mm | - | 18 W/m² | - |
| 1777428579 | 18.33° C | 45% | 1012.8 hPa | 0 mm | - | 23 W/m² | - |
| 1777428275 | 18.33° C | 45% | 1012.5 hPa | 0 mm | - | 28 W/m² | - |
* Rain latest hour (hover to see other rain measurements)
** Current wind speed in m/s (hover to see current wind gust speed)